STARLINK-1487, 45758

Orbit data source: Space-Track

STARLINK-1487, 45758 is a payload satellite owned by SpaceX/Seattle (US) in LEO that was launched on Sat, 13 Jun 2020 UTC via an FALCON 9 launch vehicle from the Air Force Eastern Test Range (AFETR). Payloads include a variety of satellites, spacecraft, and rockets equipped with specific instruments for various scientific and technological missions. These include communications satellites like Starlink; space stations such as the ISS; scientific satellites like the Hubble; Earth observation satellites from companies like Planet Labs, Umbra, and HawkEye 360; GPS; miniature CubeSats for education and research; and military/defense satellites.

Loading next visibility...
STARLINK-1487 details
Identifier
45758, 2020-038AE
Orbit
LEO
Last TLE update19 hours ago
Origin
Flag of USSpaceX/Seattle (US)
ManufacturerSpaceX/Seattle
MissionPartially operational Commercial Communications
Bus & MotorSTARLINK, Unknown motor
Mass260 kg wet, ~248 kg dry
Launch date (UTC)
2020-06-13 (5 years ago)
Launch vehicle
FALCON 9
Launch site
Air Force Eastern Test Range (AFETR)
Object type
Payload
Rocket body
Debris
Shape & HBRBox + 1 Pan, 8.86 m
Radar Cross Section13.562 m², Large (>1 m²)

Expand to show TLE details & history

TLE from 19 hours ago
0 STARLINK-1487
1 45758U 20038AE  25023.71747378  .00054208  00000-0  89263-3 0  9998
2 45758  53.0304 148.1997 0001366 188.0276 172.0710 15.51826239256219
Epoch: 2025-01-23T17:13Z
Definitive object data (Epoch: 2025-01-23T17:13:09.734Z)
Latitude-0.00009°
Longitude126.61809°
Altitude413.207 km
Speed7.664 km/s
True Right ascension09h 52m 47s
True Declination0° 00' 00"
Sunlit
Object was in full shadow at TLE epoch
Visualization TLE readout
Latitude15.66383°
Longitude-69.35752°
Altitude410.547 km
Speed7.668 km/s
Apparent Right ascension22h 51m 32s
Apparent Declination-13° 43' 09"
Sunlit
Object is in daylight
Visualization observer readout
Local Sidereal Time13:43:07
Azimuth67.435° ENE
Elevation-44.27°
Doppler factor1
Orbital elements
Apogee altitude412.601 km
Perigee altitude410.746 km
Semi-major axis6,789.811 km
Eccentricity0.0001366
Inclination53.0304°
RAAN148.1997°
Arg. of periapsis188.0276°
True anomaly172.07316°
Mean anomaly172.071°
Eccentric anomaly172.07208°
Mean motion3.87933 °/min
BSTAR0.00089263
Orbital period92.8 mins
Loading maneuver chart data...

STARLINK-1487 Visibility forecast

Observer location: undefined°, undefined

Span
Click to sort rows by Start time (UTC) header in descending order
Start Az.
Max El. time (UTC)
Max El. Az.
Max El.
End time (UTC)
End Az.
4 mins2025-01-24 16:53:16.683Z340.744° N2025-01-24 16:55:16.683Z45.388° ENE27.799°2025-01-24 16:57:16.683Z92.334° ESE
4 mins2025-01-25 11:10:16.683Z265.777° W2025-01-25 11:12:16.683Z331.154° NNW32.086°2025-01-25 11:14:16.683Z28.869° NE
|